| time (UTC) | temp F | wind direction | speed MPH | gust MPH | rain 1hr in | rain 24hr in | rain mn in | humidity % | barometer mb |
| 20260505050546 | 59 | 0 | 0.0 | 4.0 | 0.00 | 0.00 | 0.00 | 70 | 1010.6 |
| 20260505041550 | 62 | 0 | 0.0 | 1.0 | 0.00 | 0.00 | 0.00 | 69 | 1010.4 |
| 20260505041045 | 62 | 0 | 0.0 | 1.0 | 0.00 | 0.00 | 0.00 | 67 | 1010.3 |
| 20260505040547 | 62 | 0 | 0.0 | 2.0 | 0.00 | 0.00 | 0.00 | 67 | 1010.3 |
| 20260505040052 | 63 | 0 | 0.0 | 2.0 | 0.00 | 0.00 | 0.00 | 66 | 1010.2 |
| 20260505035546 | 63 | 360 | 0.0 | 2.0 | 0.00 | 0.00 | 0.00 | 67 | 1010.2 |
| 20260505035048 | 64 | 352 | 0.0 | 3.0 | 0.00 | 0.00 | 0.00 | 66 | 1010.1 |
| 20260505034552 | 64 | 352 | 0.0 | 4.0 | 0.00 | 0.00 | 0.00 | 64 | 1010.1 |
| 20260505034046 | 64 | 311 | 1.0 | 7.0 | 0.00 | 0.00 | 0.00 | 64 | 1010.1 |
| 20260505033547 | 65 | 13 | 1.0 | 7.0 | 0.00 | 0.00 | 0.00 | 64 | 1009.9 |
| 20260505033114 | 65 | 307 | 2.0 | 7.0 | 0.00 | 0.00 | 0.00 | 62 | 1009.9 |
| 20260505032546 | 65 | 350 | 0.0 | 4.0 | 0.00 | 0.00 | 0.00 | 62 | 1009.9 |
| 20260505032045 | 66 | 333 | 1.0 | 4.0 | 0.00 | 0.00 | 0.00 | 62 | 1010.0 |
| 20260505031553 | 67 | 0 | 0.0 | 4.0 | 0.00 | 0.00 | 0.00 | 63 | 1009.9 |
| 20260505031049 | 67 | 349 | 0.0 | 4.0 | 0.00 | 0.00 | 0.00 | 62 | 1009.8 |
| 20260505030543 | 68 | 305 | 1.0 | 4.0 | 0.00 | 0.00 | 0.00 | 61 | 1009.8 |
| 20260505030055 | 68 | 313 | 1.0 | 5.0 | 0.00 | 0.00 | 0.00 | 60 | 1009.8 |
| 20260505025545 | 69 | 302 | 1.0 | 5.0 | 0.00 | 0.00 | 0.00 | 59 | 1009.7 |
| 20260505025045 | 69 | 306 | 1.0 | 4.0 | 0.00 | 0.00 | 0.00 | 57 | 1009.6 |
| 20260505024604 | 69 | 0 | 1.0 | 5.0 | 0.00 | 0.00 | 0.00 | 56 | 1009.6 |
| 20260505024046 | 70 | 0 | 2.0 | 6.0 | 0.00 | 0.00 | 0.00 | 55 | 1009.6 |
| 20260505023547 | 70 | 336 | 2.0 | 6.0 | 0.00 | 0.00 | 0.00 | 54 | 1009.5 |
| 20260505023106 | 70 | 301 | 2.0 | 7.0 | 0.00 | 0.00 | 0.00 | 53 | 1009.5 |
| 20260505022549 | 70 | 323 | 3.0 | 7.0 | 0.00 | 0.00 | 0.00 | 52 | 1009.4 |
| 20260505022050 | 71 | 300 | 2.0 | 10.0 | 0.00 | 0.00 | 0.00 | 51 | 1009.4 |
| 20260505021601 | 71 | 315 | 4.0 | 10.0 | 0.00 | 0.00 | 0.00 | 50 | 1009.4 |
| 20260505021045 | 72 | 263 | 3.0 | 10.0 | 0.00 | 0.00 | 0.00 | 51 | 1009.4 |
| 20260505020545 | 72 | 302 | 3.0 | 10.0 | 0.00 | 0.00 | 0.00 | 50 | 1009.3 |
| 20260505020057 | 72 | 348 | 3.0 | 10.0 | 0.00 | 0.00 | 0.00 | 49 | 1009.3 |
| 20260505015546 | 73 | 350 | 5.0 | 11.0 | 0.00 | 0.00 | 0.00 | 48 | 1009.2 |
| 20260505015046 | 74 | 341 | 5.0 | 11.0 | 0.00 | 0.00 | 0.00 | 48 | 1009.2 |
| 20260505014556 | 74 | 306 | 3.0 | 9.0 | 0.00 | 0.00 | 0.00 | 49 | 1009.2 |
| 20260505014045 | 75 | 272 | 2.0 | 8.0 | 0.00 | 0.00 | 0.00 | 48 | 1009.2 |
| 20260505013544 | 75 | 0 | 2.0 | 8.0 | 0.00 | 0.00 | 0.00 | 50 | 1009.1 |
| 20260505013105 | 75 | 334 | 3.0 | 10.0 | 0.00 | 0.00 | 0.00 | 50 | 1009.2 |
| 20260505012547 | 75 | 9 | 2.0 | 11.0 | 0.00 | 0.00 | 0.00 | 50 | 1009.1 |
| 20260505012047 | 75 | 333 | 2.0 | 11.0 | 0.00 | 0.00 | 0.00 | 50 | 1009.1 |
| 20260505011601 | 76 | 15 | 4.0 | 11.0 | 0.00 | 0.00 | 0.00 | 49 | 1009.1 |
| 20260505011047 | 76 | 317 | 4.0 | 11.0 | 0.00 | 0.00 | 0.00 | 49 | 1009.1 |
| 20260505010547 | 76 | 326 | 4.0 | 10.0 | 0.00 | 0.00 | 0.00 | 48 | 1009.1 |
| 20260505010109 | 77 | 281 | 3.0 | 10.0 | 0.00 | 0.00 | 0.00 | 46 | 1009.0 |
| 20260505005548 | 78 | 333 | 4.0 | 9.0 | 0.00 | 0.00 | 0.00 | 45 | 1009.1 |
| 20260505005048 | 79 | 308 | 3.0 | 10.0 | 0.00 | 0.00 | 0.00 | 42 | 1009.0 |
| 20260505004559 | 79 | 294 | 3.0 | 10.0 | 0.00 | 0.00 | 0.00 | 42 | 1008.9 |
| 20260505004050 | 79 | 291 | 2.0 | 8.0 | 0.00 | 0.00 | 0.00 | 40 | 1008.9 |
| 20260505003547 | 80 | 284 | 2.0 | 8.0 | 0.00 | 0.00 | 0.00 | 39 | 1008.9 |
| 20260505003053 | 80 | 342 | 2.0 | 9.0 | 0.00 | 0.00 | 0.00 | 39 | 1008.9 |
| 20260505002547 | 80 | 294 | 3.0 | 9.0 | 0.00 | 0.00 | 0.00 | 38 | 1008.9 |
| 20260505002047 | 80 | 0 | 1.0 | 6.0 | 0.00 | 0.00 | 0.00 | 39 | 1008.9 |
| 20260505001558 | 80 | 281 | 2.0 | 11.0 | 0.00 | 0.00 | 0.00 | 39 | 1009.0 |
| 20260505001049 | 80 | 288 | 1.0 | 11.0 | 0.00 | 0.00 | 0.00 | 38 | 1009.0 |
| 20260505000551 | 80 | 286 | 2.0 | 11.0 | 0.00 | 0.00 | 0.00 | 37 | 1009.1 |
| 20260505000101 | 79 | 235 | 1.0 | 6.0 | 0.00 | 0.00 | 0.00 | 38 | 1009.1 |
| 20260504235549 | 80 | 296 | 0.0 | 7.0 | 0.00 | 0.00 | 0.00 | 39 | 1009.2 |
| 20260504235049 | 79 | 352 | 2.0 | 7.0 | 0.00 | 0.00 | 0.00 | 38 | 1009.1 |
| 20260504234616 | 80 | 326 | 2.0 | 6.0 | 0.00 | 0.00 | 0.00 | 38 | 1009.1 |
| 20260504234048 | 79 | 308 | 2.0 | 6.0 | 0.00 | 0.00 | 0.00 | 40 | 1009.2 |
| 20260504233548 | 79 | 317 | 1.0 | 9.0 | 0.00 | 0.00 | 0.00 | 39 | 1009.3 |
| 20260504233058 | 80 | 223 | 3.0 | 9.0 | 0.00 | 0.00 | 0.00 | 41 | 1009.3 |
| 20260504232548 | 80 | 163 | 3.0 | 8.0 | 0.00 | 0.00 | 0.00 | 40 | 1009.3 |
| 20260504232047 | 80 | 163 | 2.0 | 8.0 | 0.00 | 0.00 | 0.00 | 40 | 1009.3 |
| 20260504231559 | 79 | 203 | 2.0 | 10.0 | 0.00 | 0.00 | 0.00 | 40 | 1009.3 |
| 20260504231045 | 78 | 225 | 4.0 | 10.0 | 0.00 | 0.00 | 0.00 | 41 | 1009.4 |
| 20260504230547 | 79 | 221 | 4.0 | 7.0 | 0.00 | 0.00 | 0.00 | 41 | 1009.4 |
| 20260504230053 | 81 | 208 | 2.0 | 8.0 | 0.00 | 0.00 | 0.00 | 40 | 1009.4 |
| 20260504225549 | 80 | 155 | 2.0 | 10.0 | 0.00 | 0.00 | 0.00 | 42 | 1009.4 |
| 20260504225049 | 78 | 0 | 3.0 | 10.0 | 0.00 | 0.00 | 0.00 | 41 | 1009.4 |
| 20260504224604 | 79 | 277 | 2.0 | 10.0 | 0.00 | 0.00 | 0.00 | 40 | 1009.4 |
| 20260504224048 | 81 | 240 | 2.0 | 10.0 | 0.00 | 0.00 | 0.00 | 38 | 1009.4 |
| 20260504223549 | 81 | 165 | 2.0 | 10.0 | 0.00 | 0.00 | 0.00 | 40 | 1009.5 |
| 20260504223054 | 80 | 223 | 3.0 | 8.0 | 0.00 | 0.00 | 0.00 | 39 | 1009.5 |
| 20260504222549 | 80 | 173 | 2.0 | 8.0 | 0.00 | 0.00 | 0.00 | 39 | 1009.5 |
| 20260504222048 | 80 | 219 | 2.0 | 8.0 | 0.00 | 0.00 | 0.00 | 40 | 1009.5 |
| 20260504221604 | 79 | 0 | 3.0 | 8.0 | 0.00 | 0.00 | 0.00 | 39 | 1009.5 |
| 20260504221048 | 79 | 225 | 3.0 | 7.0 | 0.00 | 0.00 | 0.00 | 39 | 1009.6 |
| 20260504220548 | 79 | 311 | 2.0 | 8.0 | 0.00 | 0.00 | 0.00 | 37 | 1009.6 |
| 20260504220058 | 79 | 286 | 2.0 | 8.0 | 0.00 | 0.00 | 0.00 | 39 | 1009.7 |
| 20260504215546 | 79 | 317 | 1.0 | 11.0 | 0.00 | 0.00 | 0.00 | 38 | 1009.9 |
| 20260504215047 | 78 | 180 | 4.0 | 11.0 | 0.00 | 0.00 | 0.00 | 38 | 1010.0 |
| 20260504214602 | 78 | 300 | 2.0 | 8.0 | 0.00 | 0.00 | 0.00 | 38 | 1010.1 |
| 20260504214046 | 79 | 203 | 2.0 | 7.0 | 0.00 | 0.00 | 0.00 | 38 | 1010.1 |
| 20260504213545 | 79 | 281 | 1.0 | 8.0 | 0.00 | 0.00 | 0.00 | 37 | 1010.1 |
| 20260504213105 | 79 | 155 | 1.0 | 8.0 | 0.00 | 0.00 | 0.00 | 38 | 1010.1 |
| 20260504212545 | 78 | 217 | 4.0 | 10.0 | 0.00 | 0.00 | 0.00 | 41 | 1010.1 |
| 20260504212044 | 78 | 167 | 3.0 | 10.0 | 0.00 | 0.00 | 0.00 | 42 | 1010.2 |
| 20260504211604 | 77 | 117 | 2.0 | 10.0 | 0.00 | 0.00 | 0.00 | 43 | 1010.2 |
| 20260504211045 | 77 | 200 | 2.0 | 10.0 | 0.00 | 0.00 | 0.00 | 43 | 1010.2 |
| 20260504210543 | 77 | 269 | 3.0 | 8.0 | 0.00 | 0.00 | 0.00 | 43 | 1010.2 |
| 20260504205549 | 75 | 232 | 2.0 | 10.0 | 0.00 | 0.00 | 0.00 | 45 | 1010.2 |
| 20260504205051 | 77 | 225 | 2.0 | 8.0 | 0.00 | 0.00 | 0.00 | 43 | 1010.2 |
| 20260504204635 | 77 | 96 | 4.0 | 10.0 | 0.00 | 0.00 | 0.00 | 45 | 1010.3 |
| 20260504204048 | 77 | 162 | 4.0 | 10.0 | 0.00 | 0.00 | 0.00 | 43 | 1010.3 |
| 20260504203549 | 77 | 174 | 3.0 | 9.0 | 0.00 | 0.00 | 0.00 | 43 | 1010.4 |
| 20260504203053 | 77 | 157 | 3.0 | 8.0 | 0.00 | 0.00 | 0.00 | 42 | 1010.4 |
| 20260504202545 | 75 | 0 | 3.0 | 11.0 | 0.00 | 0.00 | 0.00 | 44 | 1010.4 |
| 20260504202046 | 76 | 271 | 1.0 | 11.0 | 0.00 | 0.00 | 0.00 | 44 | 1010.5 |
| 20260504201554 | 76 | 159 | 0.0 | 7.0 | 0.00 | 0.00 | 0.00 | 46 | 1010.4 |
| 20260504201046 | 76 | 157 | 3.0 | 8.0 | 0.00 | 0.00 | 0.00 | 45 | 1010.5 |
| 20260504200546 | 74 | 223 | 3.0 | 8.0 | 0.00 | 0.00 | 0.00 | 48 | 1010.4 |
| 20260504200055 | 75 | 218 | 3.0 | 9.0 | 0.00 | 0.00 | 0.00 | 49 | 1010.6 |
| 20260504195546 | 76 | 194 | 2.0 | 9.0 | 0.00 | 0.00 | 0.00 | 45 | 1010.6 |
| 20260504195046 | 75 | 134 | 3.0 | 9.0 | 0.00 | 0.00 | 0.00 | 46 | 1010.6 |
| 20260504194555 | 74 | 179 | 3.0 | 9.0 | 0.00 | 0.00 | 0.00 | 48 | 1010.5 |
| 20260504194046 | 75 | 157 | 1.0 | 11.0 | 0.00 | 0.00 | 0.00 | 48 | 1010.5 |
| 20260504193545 | 74 | 221 | 3.0 | 11.0 | 0.00 | 0.00 | 0.00 | 47 | 1010.4 |
| 20260504193050 | 73 | 188 | 4.0 | 11.0 | 0.00 | 0.00 | 0.00 | 48 | 1010.5 |
| 20260504192545 | 73 | 186 | 3.0 | 11.0 | 0.00 | 0.00 | 0.00 | 48 | 1010.4 |
| 20260504192048 | 73 | 242 | 3.0 | 11.0 | 0.00 | 0.00 | 0.00 | 48 | 1010.4 |
| 20260504191555 | 74 | 146 | 4.0 | 10.0 | 0.00 | 0.00 | 0.00 | 47 | 1010.5 |
| 20260504191046 | 74 | 156 | 4.0 | 11.0 | 0.00 | 0.00 | 0.00 | 48 | 1010.4 |
| 20260504190546 | 74 | 155 | 4.0 | 11.0 | 0.00 | 0.00 | 0.00 | 48 | 1010.5 |
| 20260504190100 | 73 | 219 | 4.0 | 10.0 | 0.00 | 0.00 | 0.00 | 49 | 1010.5 |
| 20260504185545 | 73 | 176 | 4.0 | 10.0 | 0.00 | 0.00 | 0.00 | 50 | 1010.5 |
| 20260504185048 | 73 | 225 | 3.0 | 9.0 | 0.00 | 0.00 | 0.00 | 52 | 1010.6 |
| 20260504184604 | 72 | 200 | 3.0 | 9.0 | 0.00 | 0.00 | 0.00 | 48 | 1010.5 |
| 20260504184048 | 73 | 225 | 3.0 | 10.0 | 0.00 | 0.00 | 0.00 | 49 | 1010.5 |
| 20260504183548 | 72 | 177 | 4.0 | 10.0 | 0.00 | 0.00 | 0.00 | 52 | 1010.4 |
| 20260504183058 | 73 | 192 | 4.0 | 9.0 | 0.00 | 0.00 | 0.00 | 51 | 1010.5 |
| 20260504182550 | 73 | 148 | 3.0 | 9.0 | 0.00 | 0.00 | 0.00 | 55 | 1010.5 |
| 20260504182048 | 72 | 165 | 4.0 | 8.0 | 0.00 | 0.00 | 0.00 | 55 | 1010.5 |
| 20260504181552 | 72 | 213 | 2.0 | 8.0 | 0.00 | 0.00 | 0.00 | 57 | 1010.4 |
| 20260504181048 | 72 | 165 | 2.0 | 8.0 | 0.00 | 0.00 | 0.00 | 54 | 1010.4 |
| 20260504180549 | 72 | 168 | 3.0 | 8.0 | 0.00 | 0.00 | 0.00 | 57 | 1010.4 |
| 20260504180051 | 71 | 202 | 3.0 | 8.0 | 0.00 | 0.00 | 0.00 | 57 | 1010.4 |
| 20260504175551 | 70 | 0 | 3.0 | 8.0 | 0.00 | 0.00 | 0.00 | 60 | 1010.5 |
| 20260504175048 | 71 | 207 | 1.0 | 9.0 | 0.00 | 0.00 | 0.00 | 59 | 1010.4 |
| 20260504174550 | 69 | 238 | 4.0 | 9.0 | 0.00 | 0.00 | 0.00 | 61 | 1010.5 |
| 20260504174048 | 69 | 229 | 3.0 | 8.0 | 0.00 | 0.00 | 0.00 | 61 | 1010.4 |
| 20260504173549 | 69 | 229 | 3.0 | 7.0 | 0.00 | 0.00 | 0.00 | 61 | 1010.4 |
| 20260504173053 | 69 | 261 | 1.0 | 7.0 | 0.00 | 0.00 | 0.00 | 62 | 1010.3 |
| 20260504172547 | 68 | 0 | 2.0 | 7.0 | 0.00 | 0.00 | 0.00 | 63 | 1010.3 |
| 20260504172047 | 68 | 188 | 2.0 | 7.0 | 0.00 | 0.00 | 0.00 | 63 | 1010.3 |
| 20260504171552 | 68 | 290 | 0.0 | 3.0 | 0.00 | 0.00 | 0.00 | 63 | 1010.3 |
| 20260504171048 | 68 | 300 | 0.0 | 3.0 | 0.00 | 0.00 | 0.00 | 63 | 1010.4 |
| 20260504170547 | 67 | 300 | 0.0 | 5.0 | 0.00 | 0.00 | 0.00 | 64 | 1010.4 |
| 20260504151048 | 58 | 0 | 0.0 | 2.0 | 0.00 | 0.00 | 0.00 | 80 | 1010.3 |
| 20260504150550 | 57 | 323 | 0.0 | 2.0 | 0.00 | 0.00 | 0.00 | 82 | 1010.4 |
| 20260504141047 | 52 | 0 | 0.0 | 0.0 | 0.00 | 0.00 | 0.00 | 92 | 1009.7 |
| 20260504140547 | 51 | 0 | 0.0 | 1.0 | 0.00 | 0.00 | 0.00 | 93 | 1009.8 |
| 20260504130547 | 50 | 0 | 0.0 | 0.0 | 0.00 | 0.00 | 0.00 | 92 | 1009.4 |
| 20260504110546 | 51 | 0 | 0.0 | 0.0 | 0.00 | 0.00 | 0.00 | 89 | 1009.4 |
| 20260504100545 | 52 | 0 | 0.0 | 0.0 | 0.00 | 0.00 | 0.00 | 87 | 1009.5 |
| 20260504081555 | 53 | 0 | 0.0 | 0.0 | 0.00 | 0.00 | 0.00 | 82 | 1009.3 |
| 20260504081047 | 53 | 0 | 0.0 | 0.0 | 0.00 | 0.00 | 0.00 | 82 | 1009.3 |
| 20260504080547 | 53 | 0 | 0.0 | 1.0 | 0.00 | 0.00 | 0.00 | 82 | 1009.3 |